| time (UTC) | temp C | wind direction | speed KPH | gust KPH | rain 1hr cm | rain 24hr cm | rain mn cm | humidity % | barometer mb |
| 20260502130517 | 11 | 0.0 | 0.0 | 0.00 | 1.50 | 0.00 | 93 | 1020.6 | |
| 20260502123517 | 10 | 0.0 | 1.6 | 0.00 | 1.52 | 0.00 | 94 | 1020.3 | |
| 20260502122537 | 9 | 0.0 | 1.6 | 0.00 | 1.57 | 0.00 | 94 | 1020.0 | |
| 20260502121517 | 9 | 0.0 | 0.0 | 0.00 | 1.70 | 0.00 | 94 | 1019.8 | |
| 20260502120517 | 9 | 0.0 | 0.0 | 0.00 | 1.73 | 0.00 | 94 | 1019.6 | |
| 20260502115517 | 9 | 0.0 | 0.0 | 0.00 | 1.80 | 0.00 | 94 | 1019.6 | |
| 20260502114537 | 9 | 0.0 | 1.6 | 0.00 | 1.93 | 0.00 | 93 | 1019.2 | |
| 20260502113517 | 9 | 0.0 | 0.0 | 0.00 | 2.03 | 0.00 | 93 | 1019.2 | |
| 20260502112517 | 9 | 0.0 | 0.0 | 0.00 | 2.08 | 0.00 | 93 | 1019.1 | |
| 20260502111517 | 9 | 0.0 | 0.0 | 0.00 | 2.11 | 0.00 | 93 | 1018.9 | |
| 20260502110517 | 9 | 0.0 | 0.0 | 0.00 | 2.13 | 0.00 | 93 | 1018.8 | |
| 20260502105517 | 9 | 0.0 | 0.0 | 0.00 | 2.24 | 0.00 | 93 | 1018.9 | |
| 20260502104517 | 9 | 0.0 | 0.0 | 0.00 | 2.34 | 0.00 | 93 | 1018.7 | |
| 20260502103517 | 9 | 0.0 | 0.0 | 0.00 | 2.41 | 0.00 | 93 | 1018.6 | |
| 20260502102516 | 9 | 0.0 | 0.0 | 0.00 | 2.49 | 0.00 | 93 | 1018.4 | |
| 20260502101537 | 9 | 0.0 | 0.0 | 0.00 | 2.54 | 0.00 | 93 | 1018.1 | |
| 20260502100517 | 9 | 0.0 | 0.0 | 0.00 | 2.59 | 0.00 | 93 | 1018.1 | |
| 20260502091517 | 10 | 0.0 | 0.0 | 0.00 | 2.77 | 0.00 | 93 | 1017.5 | |
| 20260502090517 | 10 | 0.0 | 0.0 | 0.00 | 2.87 | 0.00 | 93 | 1017.6 | |
| 20260502071516 | 10 | 0.0 | 0.0 | 0.00 | 3.56 | 0.00 | 93 | 1017.3 | |
| 20260502070516 | 10 | 0.0 | 0.0 | 0.00 | 3.56 | 0.00 | 93 | 1017.2 | |
| 20260502065516 | 10 | 0.0 | 0.0 | 0.00 | 3.56 | 0.00 | 93 | 1017.1 | |
| 20260502064516 | 10 | 0.0 | 0.0 | 0.00 | 3.56 | 0.00 | 93 | 1017.1 | |
| 20260502063516 | 10 | 0.0 | 0.0 | 0.00 | 3.56 | 0.00 | 93 | 1017.3 | |
| 20260502062516 | 11 | 0.0 | 0.0 | 0.00 | 3.56 | 0.00 | 93 | 1017.4 | |
| 20260502061516 | 10 | 0.0 | 0.0 | 0.00 | 3.58 | 0.00 | 93 | 1017.4 | |
| 20260502060516 | 10 | 0.0 | 0.0 | 0.00 | 3.58 | 0.00 | 93 | 1017.5 | |
| 20260502055516 | 11 | 0.0 | 0.0 | 0.00 | 3.58 | 0.00 | 92 | 1017.4 | |
| 20260502054516 | 11 | 0.0 | 0.0 | 0.00 | 3.58 | 0.00 | 92 | 1017.5 | |
| 20260502053516 | 11 | 0.0 | 0.0 | 0.00 | 3.58 | 0.00 | 92 | 1017.6 | |
| 20260502052516 | 11 | 0.0 | 0.0 | 0.00 | 3.58 | 0.00 | 92 | 1017.3 | |
| 20260502051516 | 11 | 0.0 | 0.0 | 0.00 | 3.58 | 0.00 | 92 | 1017.2 | |
| 20260502050516 | 11 | 0.0 | 0.0 | 0.00 | 3.58 | 0.00 | 92 | 1017.1 | |
| 20260502045517 | 11 | 0.0 | 0.0 | 0.00 | 3.58 | 3.58 | 91 | 1017.0 | |
| 20260502044517 | 11 | 0.0 | 0.0 | 0.00 | 3.58 | 3.58 | 91 | 1017.2 | |
| 20260502043537 | 11 | 0.0 | 0.0 | 0.00 | 3.58 | 3.58 | 90 | 1017.3 | |
| 20260502042517 | 11 | 0.0 | 0.0 | 0.00 | 3.58 | 3.58 | 90 | 1017.3 | |
| 20260502041517 | 11 | 0.0 | 6.4 | 0.00 | 3.58 | 3.58 | 90 | 1017.2 | |
| 20260502040517 | 11 | 0.0 | 1.6 | 0.00 | 3.58 | 3.58 | 90 | 1017.0 | |
| 20260502035517 | 11 | 0.0 | 1.6 | 0.00 | 3.58 | 3.58 | 90 | 1016.9 | |
| 20260502034517 | 11 | 0.0 | 3.2 | 0.00 | 3.58 | 3.58 | 90 | 1017.0 | |
| 20260502033537 | 11 | 0.0 | 9.7 | 0.00 | 3.58 | 3.58 | 90 | 1017.2 | |
| 20260502032517 | 11 | 0.0 | 6.4 | 0.00 | 3.58 | 3.58 | 90 | 1016.9 | |
| 20260502031517 | 11 | 0 | 1.6 | 8.0 | 0.00 | 3.58 | 3.58 | 90 | 1016.9 |
| 20260502030517 | 11 | 0 | 1.6 | 9.7 | 0.00 | 3.58 | 3.58 | 90 | 1016.6 |
| 20260502025517 | 11 | 338 | 1.6 | 6.4 | 0.00 | 3.58 | 3.58 | 91 | 1016.6 |
| 20260502024537 | 11 | 0.0 | 6.4 | 0.00 | 3.58 | 3.58 | 92 | 1016.3 | |
| 20260502023517 | 11 | 0.0 | 3.2 | 0.00 | 3.58 | 3.58 | 92 | 1016.2 | |
| 20260502022516 | 11 | 0.0 | 6.4 | 0.00 | 3.58 | 3.58 | 93 | 1015.9 | |
| 20260502021517 | 11 | 23 | 1.6 | 6.4 | 0.00 | 3.58 | 3.58 | 93 | 1015.7 |
| 20260502020517 | 11 | 0.0 | 4.8 | 0.00 | 3.58 | 3.58 | 94 | 1015.6 | |
| 20260502015536 | 11 | 45 | 1.6 | 6.4 | 0.00 | 3.58 | 3.58 | 94 | 1015.5 |
| 20260502014517 | 11 | 0 | 1.6 | 6.4 | 0.00 | 3.58 | 3.58 | 94 | 1015.4 |
| 20260502013517 | 11 | 45 | 1.6 | 8.0 | 0.00 | 3.58 | 3.58 | 95 | 1015.2 |
| 20260502012516 | 11 | 23 | 1.6 | 8.0 | 0.00 | 3.58 | 3.58 | 95 | 1015.1 |
| 20260502011516 | 11 | 338 | 1.6 | 12.9 | 0.00 | 3.58 | 3.58 | 95 | 1014.9 |
| 20260502010517 | 11 | 0 | 1.6 | 9.7 | 0.00 | 3.58 | 3.58 | 95 | 1014.8 |
| 20260502005517 | 11 | 23 | 1.6 | 14.5 | 0.00 | 3.58 | 3.58 | 95 | 1014.8 |
| 20260502004516 | 12 | 23 | 1.6 | 16.1 | 0.00 | 3.58 | 3.58 | 95 | 1014.6 |
| 20260502003557 | 12 | 23 | 3.2 | 17.7 | 0.03 | 3.58 | 3.58 | 95 | 1014.3 |
| 20260502002516 | 12 | 0 | 1.6 | 8.0 | 0.03 | 3.58 | 3.58 | 95 | 1013.7 |
| 20260502001516 | 12 | 0 | 1.6 | 12.9 | 0.03 | 3.58 | 3.58 | 95 | 1013.6 |
| 20260502000536 | 12 | 23 | 3.2 | 12.9 | 0.03 | 3.58 | 3.58 | 95 | 1013.5 |
| 20260501235516 | 12 | 23 | 1.6 | 17.7 | 0.03 | 3.58 | 3.58 | 95 | 1013.4 |
| 20260501234516 | 12 | 23 | 1.6 | 9.7 | 0.03 | 3.58 | 3.58 | 95 | 1012.9 |
| 20260501233516 | 12 | 0.0 | 14.5 | 0.03 | 3.56 | 3.56 | 95 | 1013.4 | |
| 20260501232516 | 12 | 45 | 1.6 | 8.0 | 0.03 | 3.56 | 3.56 | 95 | 1013.6 |
| 20260501231516 | 12 | 0 | 4.8 | 19.3 | 0.05 | 3.56 | 3.56 | 95 | 1013.6 |
| 20260501230536 | 13 | 45 | 1.6 | 16.1 | 0.10 | 3.56 | 3.56 | 95 | 1013.1 |
| 20260501225536 | 13 | 338 | 1.6 | 4.8 | 0.15 | 3.56 | 3.56 | 95 | 1012.9 |
| 20260501224536 | 13 | 0 | 1.6 | 8.0 | 0.15 | 3.56 | 3.56 | 95 | 1012.8 |
| 20260501223516 | 13 | 0 | 3.2 | 14.5 | 0.15 | 3.53 | 3.53 | 95 | 1012.6 |
| 20260501222556 | 13 | 0 | 3.2 | 14.5 | 0.23 | 3.53 | 3.53 | 95 | 1012.7 |
| 20260501221516 | 13 | 45 | 1.6 | 16.1 | 0.25 | 3.51 | 3.51 | 95 | 1012.5 |
| 20260501220516 | 13 | 338 | 3.2 | 14.5 | 0.23 | 3.45 | 3.45 | 95 | 1012.2 |
| 20260501215516 | 13 | 338 | 1.6 | 8.0 | 0.20 | 3.40 | 3.40 | 95 | 1012.4 |
| 20260501214516 | 13 | 338 | 1.6 | 6.4 | 0.23 | 3.40 | 3.40 | 95 | 1012.7 |
| 20260501213516 | 13 | 0.0 | 3.2 | 0.23 | 3.38 | 3.38 | 95 | 1012.4 | |
| 20260501212516 | 13 | 338 | 4.8 | 16.1 | 0.15 | 3.30 | 3.30 | 95 | 1012.0 |
| 20260501211516 | 13 | 338 | 1.6 | 6.4 | 0.10 | 3.25 | 3.25 | 95 | 1011.8 |
| 20260501210516 | 13 | 0.0 | 1.6 | 0.08 | 3.23 | 3.23 | 95 | 1011.9 | |
| 20260501205516 | 13 | 0 | 1.6 | 11.3 | 0.08 | 3.20 | 3.20 | 95 | 1011.4 |
| 20260501204516 | 13 | 0 | 3.2 | 14.5 | 0.05 | 3.17 | 3.17 | 95 | 1010.7 |
| 20260501203516 | 13 | 338 | 1.6 | 8.0 | 0.05 | 3.15 | 3.15 | 95 | 1010.5 |
| 20260501202516 | 14 | 23 | 3.2 | 16.1 | 0.08 | 3.15 | 3.15 | 95 | 1010.9 |
| 20260501201516 | 14 | 23 | 1.6 | 11.3 | 0.13 | 3.15 | 3.15 | 95 | 1010.6 |
| 20260501200516 | 14 | 45 | 3.2 | 14.5 | 0.15 | 3.15 | 3.15 | 96 | 1010.0 |
| 20260501195516 | 14 | 0 | 3.2 | 12.9 | 0.13 | 3.12 | 3.12 | 95 | 1010.2 |
| 20260501194516 | 15 | 0 | 1.6 | 4.8 | 0.13 | 3.12 | 3.12 | 96 | 1010.8 |
| 20260501193516 | 14 | 0 | 1.6 | 4.8 | 0.10 | 3.10 | 3.10 | 96 | 1010.9 |
| 20260501192516 | 14 | 338 | 1.6 | 4.8 | 0.10 | 3.07 | 3.07 | 95 | 1011.9 |
| 20260501191516 | 14 | 0.0 | 6.4 | 0.10 | 3.02 | 3.02 | 95 | 1011.9 | |
| 20260501190516 | 14 | 293 | 1.6 | 11.3 | 0.20 | 3.02 | 3.00 | 95 | 1012.4 |
| 20260501185516 | 14 | 0.0 | 9.7 | 0.33 | 3.28 | 3.00 | 95 | 1010.6 | |
| 20260501184515 | 15 | 23 | 1.6 | 14.5 | 0.41 | 3.53 | 3.00 | 96 | 1010.7 |
| 20260501183515 | 14 | 0 | 1.6 | 12.9 | 0.46 | 3.53 | 3.00 | 96 | 1010.9 |
| 20260501182516 | 14 | 0 | 3.2 | 12.9 | 0.46 | 3.51 | 2.97 | 96 | 1011.1 |
| 20260501181516 | 14 | 338 | 1.6 | 4.8 | 0.41 | 3.45 | 2.92 | 96 | 1012.4 |
| 20260501180516 | 14 | 0.0 | 4.8 | 0.28 | 3.33 | 2.79 | 96 | 1013.2 | |
| 20260501175515 | 14 | 0.0 | 6.4 | 0.15 | 3.20 | 2.67 | 95 | 1013.6 | |
| 20260501174515 | 14 | 0.0 | 3.2 | 0.08 | 3.12 | 2.59 | 95 | 1012.4 | |
| 20260501173515 | 14 | 338 | 3.2 | 14.5 | 0.03 | 3.07 | 2.54 | 95 | 1010.8 |
| 20260501172516 | 14 | 0.0 | 4.8 | 0.00 | 3.05 | 2.51 | 95 | 1011.7 | |
| 20260501171516 | 15 | 0.0 | 3.2 | 0.00 | 3.05 | 2.51 | 95 | 1011.7 | |
| 20260501170515 | 15 | 0.0 | 3.2 | 0.00 | 3.05 | 2.51 | 95 | 1011.7 | |
| 20260501165515 | 15 | 45 | 1.6 | 14.5 | 0.00 | 3.05 | 2.51 | 95 | 1011.0 |
| 20260501164515 | 15 | 23 | 1.6 | 14.5 | 0.03 | 3.05 | 2.51 | 95 | 1010.9 |
| 20260501163516 | 15 | 0.0 | 6.4 | 0.08 | 3.05 | 2.51 | 96 | 1011.5 | |
| 20260501162515 | 15 | 0.0 | 4.8 | 0.10 | 3.05 | 2.51 | 96 | 1011.5 | |
| 20260501161515 | 15 | 23 | 1.6 | 14.5 | 0.13 | 3.05 | 2.51 | 96 | 1011.2 |
| 20260501160515 | 15 | 23 | 1.6 | 12.9 | 0.13 | 3.05 | 2.51 | 96 | 1011.1 |
| 20260501155515 | 14 | 45 | 1.6 | 14.5 | 0.13 | 3.05 | 2.51 | 95 | 1010.8 |
| 20260501154515 | 14 | 23 | 3.2 | 17.7 | 0.10 | 3.02 | 2.49 | 95 | 1010.2 |
| 20260501153537 | 14 | 45 | 1.6 | 17.7 | 0.08 | 2.97 | 2.44 | 95 | 1012.3 |
| 20260501152517 | 15 | 0.0 | 4.8 | 0.08 | 2.95 | 2.41 | 95 | 1012.9 | |
| 20260501151517 | 15 | 0.0 | 8.0 | 0.08 | 2.92 | 2.39 | 96 | 1012.6 | |
| 20260501150537 | 15 | 0.0 | 1.6 | 0.15 | 2.92 | 2.39 | 95 | 1012.5 | |
| 20260501145517 | 15 | 45 | 1.6 | 16.1 | 0.20 | 2.92 | 2.39 | 95 | 1012.7 |
| 20260501144538 | 15 | 0.0 | 4.8 | 0.25 | 2.92 | 2.39 | 96 | 1013.1 | |
| 20260501143517 | 15 | 0.0 | 8.0 | 0.25 | 2.90 | 2.36 | 96 | 1012.3 | |
| 20260501142517 | 15 | 45 | 1.6 | 16.1 | 0.25 | 2.87 | 2.34 | 95 | 1012.0 |